Lid_Strength_Index
5 5 5 5 4 4 4 4 4 4 4 3 3 2 2 2 1 3 4 3 4 1 -0 4 5 5 6 7 6 6 12 14 13 12 10 8 10 7 7 8 7 7 8 6 3
5 5 5 5 5 4 4 4 4 4 3 3 3 2 2 2 4 4 -0 -0 0 1 4 6 6 6 9 8 8 9 13 12 9 9 10 9 10 10 9 9 9 8 6 4 3
6 5 5 5 5 5 4 4 4 4 3 3 3 2 2 2 6 5 -1 0 0 1 3 5 5 7 9 9 9 9 12 9 8 7 9 10 11 10 10 10 9 9 8 6 5
6 6 6 5 5 5 5 4 4 3 3 3 3 2 2 4 12 4 -1 -1 -1 2 5 6 7 9 10 10 9 12 9 8 7 8 10 11 10 11 11 9 7 8 8 7 5
6 6 6 6 5 5 5 4 4 3 3 3 3 2 4 7 8 2 -2 0 3 4 6 7 8 9 11 10 10 11 10 10 10 10 10 10 12 12 12 10 9 9 7 8 5
6 6 6 6 5 5 5 4 3 3 2 2 3 3 6 11 6 4 4 3 4 6 7 7 8 8 10 10 12 10 10 10 10 10 10 12 12 12 11 9 10 10 10 9 8
7 6 6 6 5 5 5 4 3 2 2 2 2 4 7 9 6 5 5 6 5 6 7 6 6 8 8 10 9 9 12 11 10 10 12 12 14 13 11 12 11 11 11 10 8
7 6 6 6 6 5 5 4 3 2 2 2 2 5 9 6 7 6 5 6 5 5 5 5 5 7 9 8 9 11 13 16 11 10 10 13 16 11 11 12 12 11 12 11 10
7 6 6 6 6 5 5 4 3 2 2 2 5 7 10 4 7 6 6 7 6 5 5 4 6 9 9 13 15 13 17 15 13 10 12 14 15 12 10 12 12 12 12 11 11
7 6 6 6 6 5 5 4 4 3 2 2 3 9 7 10 7 6 6 5 7 7 7 7 9 13 13 14 18 16 16 14 14 11 12 14 15 12 11 12 12 12 12 12 11
7 6 6 6 6 5 7 9 10 11 9 10 10 9 8 6 6 7 5 6 7 8 12 10 13 15 13 13 12 13 14 15 13 11 13 13 14 11 10 11 12 12 12 13 13
6 6 6 6 6 6 9 12 12 11 13 9 8 8 6 6 8 7 6 9 10 13 11 12 14 11 10 10 12 13 14 15 13 11 12 13 13 11 10 12 12 13 12 12 12
6 6 6 6 6 9 12 12 9 9 13 11 8 8 8 6 8 9 7 9 11 13 12 14 11 9 10 12 13 13 14 15 14 13 13 14 14 13 11 10 10 11 11 11 12
6 6 6 6 10 12 13 10 9 9 18 15 11 10 8 8 11 7 7 9 11 13 13 13 10 11 12 12 12 15 12 12 13 15 19 14 20 14 12 11 10 10 11 11 11
6 6 7 7 13 14 12 10 9 12 28 15 12 7 8 11 10 10 7 9 12 12 13 14 13 13 13 12 11 13 11 13 13 16 17 17 20 16 12 13 12 12 11 11 10
6 6 7 11 12 12 11 9 10 21 28 17 12 13 13 11 11 10 10 9 10 12 13 13 11 12 12 11 11 11 13 14 14 16 26 17 18 17 15 13 13 12 12 11 11
6 6 9 10 15 11 10 12 22 27 18 21 16 14 15 14 13 12 13 14 15 19 17 15 14 13 11 13 12 12 16 27 26 27 25 16 17 17 14 13 12 12 13 12 12
6 6 10 10 11 10 11 19 27 28 25 15 15 15 16 15 14 14 15 16 15 15 18 20 21 14 12 13 14 14 15 22 28 25 21 15 19 17 13 13 13 11 12 12 12
6 12 12 11 11 10 16 26 24 22 17 16 16 20 19 15 16 16 17 17 16 15 18 19 17 13 13 12 12 15 17 13 23 25 23 18 15 14 13 15 15 13 13 13 13
12 14 13 11 10 13 21 21 21 14 15 15 19 20 26 22 18 17 17 16 15 14 14 16 20 14 13 12 12 13 12 18 21 27 25 20 17 16 16 17 16 15 14 14 13
13 15 11 10 11 16 24 24 16 15 15 16 19 21 18 23 18 19 18 16 15 16 14 16 17 17 14 15 16 16 18 17 16 18 25 26 20 14 16 16 16 14 13 13 13
13 21 11 10 19 22 24 17 14 15 15 15 14 15 18 18 21 19 18 16 15 15 17 16 17 22 18 15 14 14 14 16 21 22 20 21 20 13 15 15 15 14 13 13 13
16 16 11 11 23 26 21 16 15 15 16 16 16 14 15 21 24 19 17 15 14 15 17 16 20 27 22 17 15 17 16 15 18 20 23 24 20 13 14 15 14 13 12 11 12
15 21 18 15 15 18 21 18 17 14 15 14 15 15 17 21 17 23 17 14 14 14 12 14 19 22 24 20 18 19 18 17 21 26 26 21 22 16 13 16 15 14 12 12 12
17 19 19 22 20 16 15 17 17 18 15 15 16 15 17 24 24 24 19 17 15 13 14 16 25 22 20 19 18 18 18 17 20 23 24 20 22 20 20 18 15 14 13 13 13
16 18 18 22 15 15 15 18 17 17 16 16 19 16 17 21 20 23 22 20 18 17 17 16 23 19 24 17 17 19 18 17 17 18 19 18 19 14 13 12 14 15 15 14 15
13 12 15 16 16 18 17 17 15 15 14 14 15 17 16 15 16 15 15 14 15 18 19 20 22 25 26 18 20 25 20 18 17 19 19 21 17 14 16 15 17 15 16 16 15